Regional Weather Roundup
Issued by NWS Wakefield, VA

Home | Current Version | Previous Version | Graphics & Text | Print | Product List | Glossary On
Versions: 1 2 3 4 5 6 7 8 9 10 11 12 13 14 15 16 17 18 19 20 21 22 23 24 25 26 27 28 29 30 31 32 33 34 35 36 37 38 39 40 41 42 43 44 45 46 47 48 49 50
000
ASUS41 KAKQ 240015
RWRAKQ

REGIONAL WEATHER ROUNDUP
NATIONAL WEATHER SERVICE WAKEFIELD VA
800 PM EDT MON MAY 23 2016

Note: "fair" indicates few or no clouds below 12,000 feet with no
significant weather and/or obstructions to visibility. * = Denotes
station may not report precipitation (e.g., rain,snow,etc.),
thunder or fog.

VAZ042-051-052>054-056-240100-
NORTHERN VIRGINIA

CITY           SKY/WX    TMP DP  RH WIND       PRES   REMARKS
WASH NATIONAL  CLOUDY    62  58  86 W8        29.95F
DULLES         MOCLDY    60  57  89 SE5       29.97R
FORT BELVOIR   FAIR      60  57  92 VRB3      29.95F
QUANTICO       LGT RAIN  62  57  83 E7        29.97F
FREDERICKSBRG* RAIN      61  59  94 CALM      29.98R
STAFFORD*      CLOUDY    60  57  91 E6        30.02R
WARRENTON      CLOUDY    60  55  84 CALM      29.96S
CULPEPER*      MOCLDY    59  58  96 CALM      29.99R
MANASSAS*      MOCLDY    61  61 100 CALM      29.97R
LEESBURG*      FAIR      63  61  94 S8        29.96S
WINCHESTER     CLOUDY    63  52  67 E3        29.96R
FRONT ROYAL*   MOCLDY    64  50  59 CALM      29.96R
LURAY*         FAIR      68  52  56 NE5       29.96R
$$

VAZ048-049-060>072-079>083-240100-
CENTRAL AND SOUTH CENTRAL VIRGINIA

CITY           SKY/WX    TMP DP  RH WIND       PRES   REMARKS
RICHMOND       CLOUDY    65  54  67 W7        29.94R
CHESTERFIELD*  MOCLDY    64  46  52 W3        29.97R
PETERSBURG*    CLOUDY    64  57  80 SW3       29.97R
HANOVER        MOCLDY    64  56  75 NW5       29.97R
TAPPAHANNOCK*  LGT RAIN  64  56  74 N8        29.96R
QUINTON*       CLOUDY    64  57  78 CALM      29.94R
CHARLOTTSVILLE FAIR      66  53  63 E10G17    29.96R
GORDONSVILLE*  MOCLDY    60  58  96 NW5       29.96F
ORANGE*        LGT RAIN  61  61 100 CALM      29.98R
LOUISA*        MOCLDY    66  61  82 W3        29.95S
BUMPASS*       CLOUDY    62  58  86 CALM      29.97R
FARMVILLE*     CLOUDY    63  59  87 CALM      29.96R
CREWE*         FAIR      61  58  90 CALM      29.97R
FORT PICKETT*  NOT AVBL
CHASE CITY*    CLOUDY    61  58  90 W3        29.98R
CLARKSVILLE*   MOCLDY    63  52  67 CALM      29.98R
SOUTH HILL*    FAIR      63  54  73 CALM      30.03R
LAWRENCEVILLE* FAIR      61  55  80 CALM      29.97R
EMPORIA*       MOCLDY    59  55  88 CALM      29.98R
$$

VAZ088>098-240100-
SOUTHEAST VIRGINIA

CITY           SKY/WX    TMP DP  RH WIND       PRES   REMARKS
NORFOLK        MOCLDY    61  54  77 VRB3      29.93R
VIRGINIA BEACH MOCLDY    63  51  65 N3        29.92R
NORFOLK NAVAL  CLOUDY    63  55  75 CALM      29.95R
WEST POINT*    MOCLDY    64  57  78 CALM      29.94S
SALUDA*        FAIR      62  58  89 CALM      29.92S
NEWPORT NEWS   MOCLDY    63  54  72 CALM      29.94R
LANGLEY AFB    FAIR      62  55  76 W2        29.94R
FORT EUSTIS    MOCLDY    62  51  66 CALM      29.92R
WILLIAMSBURG*  FAIR      63  57  82 CALM      29.95R
HR EXEC AP*    FAIR      61  55  82 CALM      29.96R
FRANKLIN*      MOCLDY    62  55  77 CALM      29.96R
US460-WAKEFLD  CLOUDY    63  58  83 CALM      29.95R
$$

VAZ020-022-025-037-045-240100-
WEST CENTRAL AND SOUTHWEST VIRGINIA

CITY           SKY/WX    TMP DP  RH WIND       PRES   REMARKS
STAUNTON*      FAIR      65  57  75 CALM      29.99R
WAYNESBORO*    FAIR      63  50  63 W6        29.98S
HOT SPRINGS VA MOCLDY    57  51  78 W8        30.04S
LYNCHBURG      FAIR      60  56  86 SW5       30.00S
DANVILLE       FAIR      62  53  72 CALM      30.00S
SOUTH BOSTON*  MOCLDY    61  57  87 CALM      29.99S
MARTINSVILLE   FAIR      59  55  86 CALM      30.05R
ROANOKE        MOCLDY    61  54  77 CALM      30.03R
BLACKSBURG     CLOUDY    61  53  77 W3        30.07R
DUBLIN*        FAIR      60  54  80 W5        30.06S
MARION*        CLOUDY    63  48  57 CALM      30.09R
HILLSVILLE*    MOCLDY    58  49  71 NW8       30.05R
RICHLANDS*     FAIR      61  31  32 CALM      30.07S
WISE*          FAIR      63  41  45 N3        30.08S
ABINGDON*      FAIR      66  48  53 E3        30.06R
$$

MDZ021>025-VAZ099-100-240100-
SOUTHERN MARYLAND AND THE DELMARVA PENINSULA

CITY           SKY/WX    TMP DP  RH WIND       PRES   REMARKS
PATUXENT RIVER CLOUDY    61  54  77 NW10      29.92R
BAY BRIDGE APT CLOUDY    61  54  77 W6        29.92F
LEONARDTOWN    CLOUDY    59  54  82 W3        29.96R
DOVER          CLOUDY    62  55  78 SW5       29.91R
GEORGETOWN     CLOUDY    62  50  64 CALM      29.92R
EASTON         CLOUDY    61  61 100 CALM      29.96R
CAMBRIDGE      CLOUDY    61  55  82 NW9       29.93R
SALISBURY      CLOUDY    61  52  72 CALM      29.91S
OCEAN CITY     CLOUDY    58  51  78 CALM      29.91S
WALLOPS ISLAND FAIR      60  52  74 NE6       29.91S
ACCOMACK*      MOCLDY    59  54  82 CALM      29.92R
$$

NCZ012>017-030>032-240100-
NORTH CENTRAL AND EASTERN NORTH CAROLINA

CITY           SKY/WX    TMP DP  RH WIND       PRES   REMARKS
ROANOKE RAPIDS FAIR      61  54  77 CALM      29.97R
RALEIGH        PTCLDY    63  52  67 NW3       30.00R
ELIZABETH CITY PTCLDY    60  52  74 N3        29.94R
AHOSKIE*       CLOUDY    59  55  86 CALM      29.96S
EDENTON*       CLOUDY   N/A N/A N/A NW3       29.96R
CURRITUCK*     PTCLDY    61  51  68 N5        29.94R
KILL DEVIL HLS MOCLDY    58  51  78 CALM      29.91R
MANTEO         CLOUDY    59  53  81 N7        29.93R
CAPE HATTERAS  PTCLDY    61  54  77 VRB6      29.92R
TARBORO*       CLOUDY    63  56  79 CALM      29.97S
GOLDSBORO      PTCLDY    64  54  69 N5        29.96R
WASHINGTON     PTCLDY    59  55  85 NW3       29.96S
GREENVILLE     CLOUDY    63  54  72 CALM      29.99R
NEW BERN       CLOUDY    62  56  80 CALM      29.97R
WILMINGTON     CLEAR     64  55  72 NW7       29.97R
$$

VAZ048-240100-
ELSEWHERE

CITY           SKY/WX    TMP DP  RH WIND       PRES   REMARKS
HARRISBURG PA  CLOUDY    63  56  78 W6        29.90R
BALTIMORE      CLOUDY    58  56  93 SW6       29.92S
ANNAPOLIS      PTCLDY    60  57  89 CALM      29.92F
ANDREWS AFB    FAIR      59  57  92 SE6       29.94F
PHILADELPHIA   MOCLDY    62  56  80 NW7       29.90R
HENDERSON NC   CLEAR     61  48  63 CALM      29.99R
GREENSBORO     PTCLDY    65  51  60 CALM      30.01R
ROCKY MOUNT    CLEAR     63  52  67 W3        29.97S
$$

VAZ100-240100-
MARINE

STATION/POSITION TIME  TEMP    WIND        PRES    WAVE   SWELL
                       AIR SEA DIR/SP/G            HT/PER HT/PER
                 (UTC) (F)     (DEG/KT/KT) (MB)    (FT/S) (FT/S)
BRANDYWINE LGT   2300                      1012.5R
CAPE MAY NJ      2300      63              1012.4R
LEWES DE         2300      61              1012.4R
15NM E FENWICK I 2350   56 55              1012.6R   5/ 8
OCEAN-CITY-INLET 2300      60              1012.0R
WACHAPREAGUE VA  2300      65              1012.3F
THOMAS POINT MD  0000   60 60  220/  5/  5 1014.8R
GOOSES REEF MD   0000   61 61  310/  4/  6 1014.7R   1/ 2
COVE POINT MD    2300                      1013.6R
SOLOMONS ISLAND  2300      62                N/A
BISHOPS HEAD MD  2300      63              1012.9R
POTOMAC MD       0000   64 63  340/ 12/ 17 1012.3R   1
CAMBRIDGE MD     2300      63              1011.9R
LEWISETTA VA     2300      62              1012.7R
RAPPAHANNOCK LGT 2300                      1013.1S
STINGRAY PT      0000   64 63  280/  2/  2 1013.7R   1
YORK RVR RNG VA  2300                      1012.4R
YORKTOWN VA      2300      65              1012.7R
JAMESTOWN VA     0000   63 66  240/  6/  6   N/A     0
DOMINION TERM VA 2300                      1013.1R
KIPTOPEKE VA     2300      64                N/A
CHES BAY BRIDGE  2300      64              1012.9R
CHESAPEAKE LGHT  2300   58      20/ 17/ 18 1012.8R
WILLOUBY STN VA  2300                      1013.9R
CAPE HENRY BUOY  2312      59                N/A     5/ 9   2/11
1ST LANDING BUOY 0000   61 63   50/  6/  6 1013.6R   3/ 5
CAPE CHARLES BUO 2326      60                N/A     5/ 8   3/ 8
OFFSHORE WE BUOY 2321      58                N/A     6/ 8   5/ 8
64NM E OF VA BCH 2350   57 59   10/ 14/ 17 1011.0R   8/ 9   7/ 9
DUCK PIER NC     2300      62              1012.1R
44100 DUCK FRF   2324      58                N/A     6/ 9   2/11
44056 DUCK FRF   2311      62                N/A     5/ 8   2/11
OREGON INLET NC  2300      65              1012.5R
HATTERAS NC      2300      68              1012.3R
DIAMOND SHLS NC  2350   61 65  350/ 16/ 17 1012.9R   4/ 9   3/ 9
CAPE LOOKOUT NC  0000   63     340/ 14/ 16 1013.9R
$$



USA.gov is the U.S. government's official web portal to all federal, state and local government web resources and services.